Hastings, NE

9:52 AM CDT on June 22, 2017 (GMT -0500)
Hastings Municipal

Weather History for KHSI - September, 2013

Change the Weather History Date:

Tuesday, September 24, 2013

  Actual Average Record
Temperature  
Mean Temperature 62 °F 62 °F  
Max Temperature 73 °F 74 °F 94 °F (1938)
Min Temperature 51 °F 51 °F 32 °F (1985)
Degree Days  
Heating Degree Days 3 5  
Month to date heating degree days 18 54  
Since 1 July heating degree days 24 60  
Cooling Degree Days 0 2  
Month to date cooling degree days 164 99  
Year to date cooling degree days 1122 1052  
Growing Degree Days 13 (Base 50)    
Moisture  
Dew Point 53 °F    
Average Humidity 71    
Maximum Humidity 93    
Minimum Humidity 49    
Precipitation  
Precipitation 0.00 in 0.09 in 1.10 in (1970)
Month to date precipitation 0.72 2.12  
Year to date precipitation 18.78 22.78  
Snow  
Snow 0.00 in 0.00 in - ()
Month to date snowfall 0.0 0.1  
Since 1 July snowfall 0.0 0.1  
Since 1 September snowfall 0.0 0.1  
Snow Depth 0.00 in    
Sea Level Pressure  
Sea Level Pressure 29.85 in    
Wind  
Wind Speed 11 mph (NNW)    
Max Wind Speed 23 mph    
Max Gust Speed 30 mph    
Visibility 10 miles    
Events      
T = Trace of Precipitation, MM = Missing Value Source: NWS Daily Summary

Daily Weather History Graph

Daily Weather History Graph

Search for Another Location

Airport or City:

Trip Planner

Search our weather history database for the weather conditions in past years. The results will help you decide how hot, cold, wet, or windy it might be!

Date:

Astronomy

Sep. 24, 2013 Rise Set
Actual Time 7:23 AM CDT 7:27 PM CDT
Civil Twilight 6:56 AM CDT 7:54 PM CDT
Nautical Twilight 6:24 AM CDT 8:26 PM CDT
Astronomical Twilight 5:51 AM CDT 8:58 PM CDT
Moon 10:44 PM CDT (9/24) 12:40 PM CDT (9/24)
Length of Visible Light 12h 58m
Length of Day
12h 03m
Waning Gibbous, 73% of the Moon is Illuminated
Sep 24
Waning Gibbous
Sep 26
Last Quarter
Oct 4
New
Oct 11
First Quarter
Oct 18
Full

Hourly Weather History & Observations

Time (CDT) Temp. Dew Point Humidity Pressure Visibility Wind Dir Wind Speed Gust Speed Precip Events Conditions
12:39 AM 59.0 °F 53.6 °F 82% 29.65 in 10.0 mi WNW 6.9 mph - N/A   Mostly Cloudy
12:53 AM 57.9 °F 53.1 °F 84% 29.64 in 10.0 mi WNW 8.1 mph - N/A   Scattered Clouds
1:53 AM 55.9 °F 52.0 °F 87% 29.66 in 10.0 mi NW 11.5 mph - N/A   Clear
2:53 AM 57.0 °F 52.0 °F 83% 29.70 in 10.0 mi NNW 17.3 mph - N/A   Partly Cloudy
3:53 AM 57.9 °F 53.1 °F 84% 29.72 in 10.0 mi NNW 18.4 mph 26.5 mph N/A   Overcast
4:33 AM 57.2 °F 53.6 °F 88% 29.78 in 10.0 mi NW 16.1 mph - N/A   Overcast
4:53 AM 57.9 °F 53.1 °F 84% 29.76 in 10.0 mi NNW 18.4 mph 29.9 mph N/A   Overcast
5:15 AM 57.2 °F 53.6 °F 88% 29.80 in 10.0 mi NNW 18.4 mph 25.3 mph N/A   Mostly Cloudy
5:53 AM 55.9 °F 53.1 °F 90% 29.79 in 10.0 mi NNW 16.1 mph - N/A   Clear
6:04 AM 55.4 °F 53.6 °F 94% 29.82 in 10.0 mi NNW 16.1 mph 24.2 mph N/A   Scattered Clouds
6:13 AM 57.2 °F 53.6 °F 88% 29.83 in 10.0 mi NNW 19.6 mph 27.6 mph N/A   Mostly Cloudy
6:51 AM 55.4 °F 53.6 °F 94% 29.84 in 10.0 mi NNW 17.3 mph 26.5 mph N/A   Scattered Clouds
6:53 AM 55.9 °F 53.1 °F 90% 29.82 in 10.0 mi NNW 16.1 mph 26.5 mph N/A   Partly Cloudy
7:32 AM 55.4 °F 53.6 °F 94% 29.87 in 10.0 mi NNW 12.7 mph - N/A   Mostly Cloudy
7:53 AM 57.0 °F 53.1 °F 87% 29.86 in 10.0 mi NNW 13.8 mph - N/A   Overcast
8:53 AM 59.0 °F 54.0 °F 83% 29.88 in 10.0 mi NNW 11.5 mph - N/A   Overcast
9:18 AM 60.8 °F 55.4 °F 82% 29.92 in 10.0 mi NNW 13.8 mph - N/A   Overcast
9:43 AM 62.6 °F 55.4 °F 77% 29.93 in 10.0 mi NNW 15.0 mph - N/A   Overcast
9:53 AM 62.1 °F 55.0 °F 78% 29.91 in 10.0 mi NNW 13.8 mph - N/A   Overcast
10:53 AM 63.0 °F 54.0 °F 72% 29.93 in 10.0 mi NNW 15.0 mph 24.2 mph N/A   Overcast
1:53 PM 68.0 °F 51.1 °F 55% 29.94 in 10.0 mi NNW 17.3 mph - N/A   Overcast
2:53 PM 70.0 °F 52.0 °F 53% 29.92 in 10.0 mi NNE 13.8 mph - N/A   Mostly Cloudy
3:53 PM 71.1 °F 51.1 °F 49% 29.91 in 10.0 mi North 16.1 mph 21.9 mph N/A   Scattered Clouds
4:53 PM 72.0 °F 51.1 °F 48% 29.91 in 10.0 mi NNW 15.0 mph - N/A   Partly Cloudy
5:53 PM 72.0 °F 51.1 °F 48% 29.91 in 10.0 mi North 12.7 mph - N/A   Partly Cloudy
6:53 PM 69.1 °F 52.0 °F 54% 29.91 in 10.0 mi North 5.8 mph - N/A   Clear
7:53 PM 63.0 °F 52.0 °F 67% 29.92 in 10.0 mi Calm Calm - N/A   Clear
8:53 PM 59.0 °F 51.1 °F 75% 29.94 in 10.0 mi Calm Calm - N/A   Clear
9:53 PM 57.0 °F 50.0 °F 77% 29.93 in 9.0 mi Calm Calm - N/A   Clear
10:53 PM 54.0 °F 48.9 °F 83% 29.93 in 9.0 mi Calm Calm - N/A   Clear
11:53 PM 54.0 °F 48.9 °F 83% 29.92 in 10.0 mi Calm Calm - N/A   Clear